Regional Weather Roundup
Issued by NWS

Home | Current Version | Previous Version | Graphics & Text | Print | Product List | Glossary On
Versions: 1 2 3 4 5 6 7 8 9 10 11 12 13 14 15 16 17 18 19 20 21 22 23 24 25 26 27 28 29
000
ASUS45 KGTF 250410
RWRMT
MONTANA HOURLY WEATHER ROUNDUP
NATIONAL WEATHER SERVICE GREAT FALLS MT
1000 PM MDT FRI APR 24 2015

NOTE: "FAIR" INDICATES FEW OR NO CLOUDS BELOW 12000 FEET WITH NO
SIGNIFICANT WEATHER AND/OR OBSTRUCTIONS TO VISIBILITY.

MTZ001>007-043-250500-
WEST OF THE DIVIDE

CITY           SKY/WX    TMP DP  RH WIND       PRES   REMARKS
KALISPELL      PTCLDY    35  24  64 W3        29.77R
MISSOULA       CLOUDY    41  24  51 W7        29.79S
BUTTE          CLOUDY    35  33  92 CALM      29.76R
DEER LODGE       N/A     41  27  56 NW8       29.79R
EUREKA           N/A     45  21  39 E5        29.79R
HAMILTON         N/A     45  23  42 NE2       29.79R
LIBBY            N/A     37  28  70 CALM      29.80R
$$

MTZ008-052>055-250500-
SOUTHWEST MONTANA

CITY           SKY/WX    TMP DP  RH WIND       PRES   REMARKS
BOZEMAN        LGT RAIN  39  37  92 W12       29.74R WCI  32
DILLON         LGT RAIN  36  34  92 NE7       29.75R WCI  30
$$

MTZ009-010-012-014-046-048-049-054-250500-
EAST SLOPES AND CENTRAL MONTANA

CITY           SKY/WX    TMP DP  RH WIND       PRES   REMARKS
CUT BANK       CLOUDY    42  19  39 W16       29.71R
GREAT FALLS    LGT RAIN  42  38  85 NE6       29.73R
MALMSTROM AFB  LGT RAIN  42  40  91 N6        29.73S
HELENA         CLOUDY    47  30  51 CALM      29.72R
$$

MTZ011-013-016-021-045-047-050-051-250500-
NORTH CENTRAL MONTANA

CITY           SKY/WX    TMP DP  RH WIND       PRES   REMARKS
HAVRE          CLOUDY    52  39  61 S12       29.67R
LEWISTOWN      CLOUDY    45  40  82 CALM      29.69R
CHINOOK          N/A     52  37  58 CALM      29.66S
FORT BENTON      N/A     46  39  76 W6        29.72R
$$

MTZ017>020-022>042-056>058-061-062-250500-
EASTERN PLAINS

CITY           SKY/WX    TMP DP  RH WIND       PRES   REMARKS
BAKER          MOCLDY    48  34  58 SE8       29.62S
BILLINGS       MOCLDY    54  35  48 N18G29    29.58R
GLASGOW        CLOUDY    56  34  43 N7        29.60S
JORDAN           N/A     53  40  61 NE8       29.60F
LIVINGSTON     LGT RAIN  41  32  70 W13G21    29.69R
MILES CITY     CLOUDY    50  46  86 NE5       29.57S
SIDNEY         MOCLDY    55  37  50 CALM      29.63S
WOLF POINT     CLOUDY    54  43  66 E5        29.60S
BIG TIMBER       N/A     43  41  93 SW15      29.67R
FORSYTH          N/A     50  48  93 E5        29.56F
PLENTYWOOD       N/A     55  36  47 E14       29.64R
POPLAR           N/A     55  39  54 SE5       29.62R
$$

REGIONAL REPORTS...DAKOTAS

CITY           SKY/WX    TMP DP  RH WIND       PRES   REMARKS
WILLISTON      CLOUDY    58  36  43 E8        29.65R
MINOT          PTCLDY    48  37  65 E13       29.71R
DICKINSON      PTCLDY    46  32  58 E8        29.64S
BEACH          FAIR      48  32  53 SE8       29.64R
CROSBY         CLOUDY    50  37  62 E10       29.68S
WATFORD CITY   FAIR      50  32  50 E6        29.64R
BISMARCK       CLEAR     50  42  74 E13       29.71R
GRAND FORKS    CLOUDY    48  36  63 SE7       29.81R
FARGO          CLOUDY    46  39  76 E12       29.78R
BUFFALO SD       N/A     51  33  50 E13       29.58S
RAPID CITY     MOCLDY    46  42  86 NW9       29.62R
$$

REGIONAL REPORTS...WYOMING/IDAHO/WASHINGTON

CITY           SKY/WX    TMP DP  RH WIND       PRES   REMARKS
GILLETTE       CLOUDY    51  40  65 SE6       29.64R
SHERIDAN       PTCLDY    48  38  68 CALM      29.60F
BUFFALO WY     MOCLDY    50  41  71 S10       29.66S
CODY           CLOUDY    52  37  58 SW12G18   29.63R
YELLOWSTONE LA   N/A     34  32  92 CALM      29.75S
IDAHO FALLS    CLOUDY    47  38  71 S18       29.71R
SALMON         CLOUDY    45  36  70 CALM      29.75R
BOISE          MOCLDY    51  31  46 NW3       29.74R
SPOKANE        MOCLDY    46  30  53 S7        29.79R
$$

REGIONAL REPORTS...ALBERTA

CITY           SKY/WX    TMP DP  RH WIND       PRES   REMARKS
EDMONTON       CLOUDY    37  28  70 E9        29.82R WCI  31
CALGARY        MOCLDY    37  32  81 N10       29.71R WCI  30
LETHBRIDGE     MOCLDY    45  19  36 W14       29.68R
MEDICINE HAT   MOCLDY    48  28  46 W9        29.65R
$$

REGIONAL REPORTS...SASKATCHEWAN

CITY           SKY/WX    TMP DP  RH WIND       PRES   REMARKS
SWIFT CURRENT  MOCLDY    43  34  70 E12       29.67R
REGINA         CLOUDY    52  32  46 E18       29.69R
SASKATOON      CLOUDY    34  27  75 NE17G25   29.82R WCI  23
$$



USA.gov is the U.S. government's official web portal to all federal, state and local government web resources and services.